Location: Benedenknijpe
(52.9667°N, 5.9667°E)
Time: 05:02:13
(UTC+00:00)

Daily predictions for brighter satellites

Satellite Brightness Start Highest point End
(mag) Time Altitude Azimuth Time Altitude Azimuth Time Altitude Azimuth
SL-16 R/B 3.3 00:12:20 45° ENE 00:12:20 45° ENE 00:18:06 10° N
Cosmos 1943 Rocket 3.3 00:17:16 40° N 00:17:16 40° N 00:21:08 10° NNE
COSMOS 2455 4.0 00:18:59 35° NW 00:19:15 35° NNW 00:24:48 10° NE
CZ-2D R/B 3.9 00:17:31 10° NE 00:20:45 23° ENE 00:20:45 23° ENE
ATLAS 5 CENTAUR R/B 4.4 00:26:24 11° ENE 00:26:24 11° ENE 00:26:45 10° ENE
USA 229 DEB 4.4 00:19:53 10° NW 00:24:44 47° WNW 00:24:44 47° WNW
USA 229 4.4 00:19:58 10° NW 00:24:51 47° WNW 00:24:51 47° WNW
Cosmos 2297 Rocket 3.2 00:23:34 10° NNW 00:28:49 42° NE 00:28:49 42° NE
Resurs 1-4 Rocket 3.6 00:31:22 10° NNE 00:34:54 29° ENE 00:34:54 29° ENE
NOSS 3-1 (A) 4.1 00:31:56 10° NW 00:37:40 61° WNW 00:37:40 61° WNW
Cosmos 2369 Rocket 3.2 00:41:05 43° N 00:41:05 43° N 00:45:20 10° NNE
Nadezhda 1 Rocket 4.4 00:42:42 59° NNE 00:42:42 59° NNE 00:47:38 10° NNE
CZ-4C R/B 3.3 00:47:10 39° NW 00:47:51 40° NNW 00:54:11 10° NE
ATLAS 2AS CENTAUR R/B 4.2 00:50:10 10° WNW 00:57:26 38° N 01:04:21 10° ENE
Cosmos 2221 4.5 01:06:06 27° NNE 01:06:06 27° NNE 01:08:12 10° NNE
SL-8 Rocket 4.1 01:06:04 10° N 01:12:13 73° ENE 01:12:13 73° ENE
Meteor 2-2 Rocket 4.4 01:23:00 68° ENE 01:23:00 68° ENE 01:28:16 10° NNE
Cosmos 2218 Rocket 4.0 01:17:18 10° N 01:23:44 76° ENE 01:24:06 73° ESE
Cosmos 2366 rocket 4.0 01:19:55 10° N 01:26:14 75° ENE 01:26:34 73° ESE
Cosmos 2227 Rocket 2.5 01:20:32 10° NNW 01:25:13 60° N 01:25:13 60° N
Lacrosse 5 4.1 01:32:48 15° ESE 01:32:48 15° ESE 01:34:59 10° E
USA 234 3.1 01:27:32 10° ESE 01:34:06 88° NNE 01:37:43 30° WNW
ADEOS II 2.9 01:33:05 10° NNE 01:38:08 43° E 01:38:28 43° ESE
Cosmos 2219 4.1 01:34:16 10° NW 01:37:45 38° NW 01:37:45 38° NW
CZ-4B R/B 4.2 01:35:51 10° NNE 01:40:45 47° E 01:40:47 47° ESE
Cosmos 864 Rocket 4.3 01:37:10 10° N 01:43:21 88° WSW 01:43:29 86° SSW
Cosmos 1302 Rocket 4.3 01:44:28 62° N 01:44:28 62° N 01:48:57 10° NNE
SL-08 R/B 4.0 01:47:13 47° E 01:47:45 49° ENE 01:52:14 10° N
Cosmos 2181 Rocket 3.8 01:47:57 81° S 01:48:17 89° E 01:54:31 10° N
Cosmos 1633 Rocket 4.0 01:45:10 10° N 01:48:58 47° NE 01:48:58 47° NE
IDEFIX/ARIANE 42P 4.5 01:46:34 10° NE 01:50:52 25° E 01:53:40 16° SE
Cosmos 1666 Rocket 4.3 01:50:10 10° N 01:53:47 53° NNE 01:53:47 53° NNE
Cosmos 1959 Rocket 4.3 01:49:12 10° NNW 01:55:10 71° W 01:55:10 71° W
Cosmos 1241 Rocket 4.4 01:54:48 71° S 01:55:22 77° SE 02:01:50 10° NE
SL-16 R/B 3.3 01:57:26 37° WNW 01:57:26 37° WNW 02:01:50 10° NNW
Cosmos 1606 4.2 01:59:13 36° NE 01:59:13 36° NE 02:01:50 10° NNE
ATLAS CENTAUR R/B 4.3 01:42:16 14° W 01:59:02 72° NNW 02:05:39 10° ENE
ARIANE 5 R/B 3.8 01:55:27 10° NNE 02:00:08 34° E 02:01:51 27° SE
Cosmos 1943 Rocket 4.2 01:58:48 16° NW 02:00:44 18° NNW 02:04:33 10° NNE
Cosmos 1151 Rocket 4.3 02:00:38 33° ESE 02:01:08 34° E 02:05:04 10° NNE
IRS-1D 3.6 01:55:59 10° NNE 02:01:21 72° ESE 02:01:47 68° SE
CZ-2D R/B 2.3 01:57:06 10° N 02:02:04 61° NW 02:02:04 61° NW
AQUA 4.0 01:57:57 10° NNE 02:02:08 66° N 02:02:08 66° N
ATLAS 5 CENTAUR R/B 1.9 02:07:56 64° NNE 02:07:56 64° NNE 02:12:15 10° NE
NPP 3.6 02:03:07 10° NNE 02:08:28 66° WNW 02:08:28 66° WNW
Genesis I 4.2 02:12:59 44° NNE 02:12:59 44° NNE 02:15:46 10° NE
Cosmos 2297 Rocket 3.4 02:07:42 10° NW 02:10:32 28° NW 02:10:32 28° NW
CBERS-1 3.9 02:08:26 10° NNE 02:13:35 83° ESE 02:13:59 75° SSE
Resurs 1-4 Rocket 2.5 02:11:03 10° N 02:15:58 48° WNW 02:15:58 48° WNW
Cosmos 2082 3.5 02:11:49 10° NNW 02:17:32 82° WSW 02:20:24 31° SSE
Cosmos 1933 4.0 02:18:15 52° E 02:18:18 52° E 02:22:17 10° NNE
Cosmos 2369 Rocket 4.2 02:22:52 15° NW 02:25:11 18° NNW 02:29:05 10° NNE
SJ 16-02 3.3 02:23:48 10° N 02:27:41 30° NE 02:31:34 10° ESE
Meteor 1-25 Rocket 4.2 02:23:40 10° NNW 02:29:33 88° ENE 02:33:00 26° SSE
Gbstr 26 Del rocket 4.4 02:27:26 34° W 02:31:26 80° S 02:39:03 10° ESE
Cosmos 405 Rocket 4.4 02:28:12 10° NNW 02:30:08 26° NNW 02:30:08 26° NNW
ASTEX 1 4.1 02:28:19 10° NNE 02:33:13 51° E 02:36:22 21° SSE
IRS-P3 4.1 02:28:31 10° NNE 02:33:54 83° ESE 02:35:28 48° S
Cosmos 1697 Rocket 3.1 02:32:33 36° S 02:34:34 56° ESE 02:40:04 10° NE
CZ-4C R/B 4.0 02:32:21 10° WNW 02:37:57 34° N 02:44:34 10° ENE
H-2A R/B 3.2 02:34:17 10° SE 02:38:27 45° ENE 02:42:43 10° N
Cosmos 1980 Rocket 3.5 02:35:19 18° SSE 02:38:50 36° ESE 02:43:58 10° NE
USA 267 3.4 02:33:16 10° ENE 02:39:48 65° SE 02:42:17 39° SSW
NOSS 2-1 (E) 4.3 02:40:33 34° NNW 02:40:34 34° NNW 02:44:22 10° NE
ERS-2 4.3 02:38:47 10° ESE 02:41:53 27° ENE 02:45:01 10° N
Cosmos 2221 4.4 02:42:57 18° NW 02:42:57 18° NW 02:45:05 10° NNW
Cosmos 1602 3.8 02:38:43 10° N 02:42:33 71° ENE 02:43:13 56° SE
NOSS 2-2 (E) 4.4 02:38:20 10° NW 02:43:44 63° SW 02:51:13 10° SSE
Cosmos 2263 Rocket 2.9 02:38:12 10° NNW 02:43:45 55° NE 02:49:18 10° SE
SL-8 R/B 4.1 02:46:01 46° S 02:46:01 46° S 02:50:16 10° ESE
Meteor 1-14 Rocket 4.4 02:40:38 10° N 02:46:19 73° ENE 02:51:51 10° SSE
Cosmos 1818 3.7 02:46:11 48° W 02:47:33 65° NW 02:53:00 10° NE
ATLAS 2AS CENTAUR R/B 3.8 02:42:34 10° NW 02:50:06 49° NNE 02:57:05 10° E
NOSS 2-2 (D) 4.4 02:46:52 10° NW 02:52:10 64° SW 02:59:31 10° SSE
Cosmos 1821 Rocket 4.0 02:46:37 10° NNW 02:52:52 64° W 02:56:29 26° SSW
USA 307 3.9 02:52:25 31° SSE 02:53:01 33° SE 02:56:52 10° E
Cosmos 1470 Rocket 3.4 02:49:55 10° NNW 02:54:21 71° W 02:55:25 49° SSW
USA 308 3.9 02:55:23 32° SSE 02:56:06 34° SE 02:59:59 10° E
Spot 4 Rocket 4.3 02:51:20 10° NNE 02:56:30 68° ESE 02:59:45 23° S
Cosmos 1500 4.3 02:55:34 10° N 02:59:19 46° ENE 03:03:00 10° SSE
SL-24 R/B 4.4 02:59:50 39° SSW 03:01:20 58° W 03:06:37 10° NNW
Landsat 5 3.7 03:01:57 10° SSE 03:06:28 79° ENE 03:10:58 10° NNW
Cosmos 1934 Rocket 3.8 03:01:53 10° NNW 03:07:57 79° W 03:14:01 10° S
Cosmos 1777 Rocket 4.2 03:03:42 10° NW 03:08:42 46° WSW 03:12:05 19° S
Cosmos 2227 Rocket 3.9 03:05:22 10° NW 03:06:57 16° WNW 03:06:57 16° WNW
Cosmos 1238 Rocket 4.0 03:03:29 10° NNW 03:10:11 84° W 03:16:30 10° S
Cosmos 1782 2.8 03:10:11 33° S 03:11:55 87° E 03:15:58 10° NNE
Cosmos 1898 Rocket 4.4 03:07:26 10° NNW 03:12:34 52° ENE 03:17:42 10° SE
Cosmos 1656 3.9 03:12:05 34° WSW 03:14:10 52° NW 03:19:36 10° NNE
Lacrosse 5 2.2 03:12:00 32° SSW 03:14:10 57° SE 03:19:10 10° ENE
Cosmos 405 4.4 03:16:46 24° NW 03:16:46 24° NW 03:19:08 10° N
CZ-2C R/B 2.9 03:12:31 10° NNE 03:16:16 70° ESE 03:18:32 23° S
ADEOS Rocket 3.6 03:10:32 10° SSE 03:17:10 62° ENE 03:23:10 10° N
CZ-4B R/B 3.5 03:14:25 10° SE 03:17:11 28° ENE 03:20:01 10° N
Cosmos 1515 Rocket 3.5 03:15:08 28° SSW 03:17:27 81° WNW 03:21:56 10° N
USA 234 3.5 03:11:25 10° SSE 03:17:34 42° SW 03:23:44 10° WNW
ADEOS II 2.8 03:12:58 10° N 03:17:46 36° WNW 03:19:23 30° W
CZ-4B R/B 4.4 03:14:50 10° N 03:19:18 33° WNW 03:20:43 28° W
USA 276 2.8 03:21:38 39° S 03:21:53 40° SSE 03:24:57 10° E
Nadezhda 3 Rocket 4.1 03:18:39 26° SW 03:22:08 57° WNW 03:28:13 10° N
SL-08 R/B 4.3 03:26:12 26° W 03:26:12 26° W 03:29:44 10° NW
Cosmos 972 Rocket 3.8 03:24:15 28° SW 03:26:46 67° WNW 03:31:43 10° NNE
Cosmos 1356 3.4 03:23:27 10° NNW 03:26:51 57° W 03:28:27 27° SSW
MSX 3.8 03:21:12 10° NNE 03:27:02 90° E 03:32:39 11° SSW
Cosmos 44 4.1 03:24:49 16° S 03:28:01 44° ESE 03:32:27 10° NE
CSL-04 DEB 4.5 03:23:49 10° S 03:28:06 67° WSW 03:32:28 10° NNW
Cosmos 1328 Rocket 4.1 03:28:50 31° WSW 03:30:13 40° WNW 03:34:27 10° N
Cosmos 1605 Rocket 4.0 03:24:18 10° NNW 03:30:44 81° W 03:37:08 10° S
IDEFIX/ARIANE 42P 2.6 03:25:39 10° N 03:30:53 63° WNW 03:34:28 20° SW
Meteor 1-11 Rocket 4.3 03:25:03 10° N 03:30:53 64° ENE 03:36:33 10° SSE
Cosmos 1933 Rocket 3.8 03:27:30 10° NNW 03:31:40 44° W 03:34:17 20° SSW
Cosmos 921 Rocket 3.9 03:28:08 10° S 03:32:09 47° ESE 03:36:11 10° NNE
Cosmos 2278 3.7 03:28:10 19° SSW 03:32:25 85° ESE 03:38:11 10° NNE
CZ-3B R/B 2.4 03:32:05 31° WSW 03:33:43 88° NNW 03:43:58 10° ENE
Cosmos 1606 4.3 03:34:15 19° WNW 03:34:15 19° WNW 03:36:59 10° NNW
Cosmos 2228 Rocket 3.1 03:31:12 10° S 03:35:36 83° ESE 03:40:02 10° NNE
Cosmos 1151 Rocket 3.9 03:37:30 27° W 03:38:43 31° WNW 03:42:37 10° N
ARIANE 5 R/B 3.0 03:34:30 10° N 03:39:21 43° WNW 03:42:10 22° WSW
Cosmos 2369 3.8 03:36:40 22° SW 03:40:24 65° NW 03:46:09 10° NNE
CZ-2D R/B 4.0 03:38:37 10° NNW 03:41:28 15° NW 03:43:22 12° WNW
Cosmos 1937 Rocket 4.0 03:36:36 10° NNW 03:41:45 63° ENE 03:46:51 10° SE
CZ-4C R/B 3.5 03:42:39 15° SSW 03:45:16 38° W 03:48:39 10° NNW
Cosmos 1733 Rocket 4.4 03:41:34 10° N 03:45:45 43° ENE 03:49:54 10° SE
ALOS 4.2 03:41:43 10° NNE 03:45:54 31° E 03:50:03 10° SSE
IRIDIUM 106 4.3 03:41:31 10° N 03:46:47 84° W 03:52:00 10° S
Cosmos 1536 3.6 03:45:33 10° N 03:49:36 57° ENE 03:53:36 10° SSE
Cosmos 1869 Rocket 3.5 03:46:23 10° NNW 03:50:44 65° W 03:55:00 10° S
ATLAS 5 CENTAUR R/B 3.2 03:49:28 13° WNW 03:52:47 29° NNW 03:57:18 10° NE
Resurs 1-4 Rocket 4.1 03:52:59 10° NNW 03:54:48 12° NW 03:56:36 10° WNW
Meteor 1-4 Rocket 2.8 03:54:21 10° S 03:57:47 65° E 04:01:18 10° NNE
USA 305 3.0 03:58:51 19° WSW 04:01:53 70° SSE 04:06:07 10° ENE
X-37B 2.4 04:01:25 16° SW 04:02:36 19° S 04:04:59 10° SE
CZ-2D R/B 4.5 03:59:13 10° N 04:02:51 29° WNW 04:05:24 16° WSW
Cosmos 2100 Rocket 4.2 03:58:55 10° N 04:05:21 81° E 04:11:44 10° SSE
Cosmos 1689 Rocket 3.5 04:02:43 10° SE 04:05:32 42° ENE 04:08:23 10° N
Meteor 1-31 Rocket 4.5 04:02:04 10° NNE 04:05:37 35° E 04:09:10 10° SSE
USA 306 3.0 04:02:46 17° WSW 04:05:57 72° SSE 04:10:12 10° ENE
SJ 16-02 1.6 04:02:15 10° NW 04:06:25 43° WSW 04:10:34 10° S
Cosmos 1802 Rocket 4.5 04:01:31 10° N 04:07:40 66° ENE 04:13:51 10° SSE
Cosmos 1763 Rocket 4.3 04:03:00 10° S 04:08:10 55° ESE 04:13:22 10° NNE
PSLV R/B 3.4 04:04:03 10° N 04:08:16 71° WNW 04:12:26 10° SSW
Cosmos 389 Rocket 3.4 04:06:12 17° WSW 04:08:19 31° WNW 04:11:33 10° N
Cosmos 1727 Rocket 4.1 04:01:59 10° S 04:08:21 89° ESE 04:14:44 10° N
ASTEX 1 4.4 04:07:47 10° NNW 04:11:58 27° WNW 04:15:51 11° SW
Cosmos 2360 Rocket 4.3 04:08:14 10° SSE 04:12:57 28° ESE 04:17:41 10° NE
H-2A R/B 3.0 04:10:54 10° SSW 04:14:37 27° W 04:18:25 10° NW
ERS-2 2.8 04:12:01 10° SSW 04:15:22 33° W 04:18:44 10° NNW
CZ-2C R/B 2.5 04:10:47 10° NNE 04:15:51 71° WNW 04:21:00 10° SSW
NOSS 3-4 (A) 3.8 04:10:42 10° NW 04:17:33 84° SW 04:25:10 10° SE
NOSS 3-4 (C) 3.8 04:10:48 10° NW 04:17:39 84° SW 04:25:18 10° SE
Cosmos 1697 Rocket 3.5 04:14:18 13° WSW 04:18:50 36° NW 04:24:02 10° NNE
PAYLOAD A 3.9 04:14:47 10° N 04:19:26 58° WNW 04:24:02 10° SSW
Cosmos 1980 Rocket 2.5 04:17:09 10° SW 04:22:42 53° NW 04:28:15 10° NNE
Cosmos 2278 Rocket 4.4 04:18:06 10° NNW 04:22:47 25° NE 04:27:27 10° E
USA 267 3.4 04:16:25 10° ENE 04:22:56 72° NNW 04:29:27 10° W
FENGYUN 3A 4.1 04:18:05 10° NNE 04:23:29 66° ESE 04:28:51 10° S
Cosmos 1844 4.4 04:18:15 10° NNW 04:23:48 59° NE 04:29:17 10° SE
SJ-6F 4.4 04:21:01 10° NNE 04:25:11 86° WNW 04:29:17 10° SSW
Cosmos 990 Rocket 4.3 04:21:08 10° NW 04:26:04 45° WSW 04:30:59 10° S
Cosmos 1459 Rocket 3.9 04:20:59 10° NNW 04:27:08 81° W 04:33:11 10° S
Cosmos 2263 Rocket 2.8 04:22:26 10° NW 04:27:29 34° WSW 04:32:31 10° S
CZ-4C R/B 3.5 04:21:16 10° NW 04:27:49 56° NNE 04:35:36 10° ESE
Meteor 1-10 Rocket 4.4 04:22:15 10° SSW 04:27:59 63° WNW 04:33:52 10° N
Cosmos 2322 Rocket 2.9 04:22:27 10° SSW 04:28:00 59° ESE 04:33:37 10° NE
NOSS 3-3 (A) 4.1 04:23:43 10° SW 04:29:37 84° SE 04:36:26 10° NE
NOSS 3-3 (C) 4.1 04:23:53 10° SW 04:29:44 83° SE 04:36:31 10° NE
Cosmos 1812 3.3 04:29:02 10° SW 04:32:38 37° WNW 04:36:15 10° N
Cosmos 468 Rocket 4.1 04:27:27 10° SSW 04:32:46 90° ESE 04:38:05 10° NNE
USA 307 2.9 04:28:36 10° WSW 04:32:48 86° SSE 04:37:04 10° ENE
Cosmos 1844 Rocket 2.9 04:29:02 10° NNW 04:34:43 80° ENE 04:40:22 10° SE
SL-16 R/B 2.4 04:30:00 10° SSW 04:35:39 77° ESE 04:41:22 10° NNE
USA 308 2.9 04:31:37 10° WSW 04:35:54 88° SSE 04:40:10 10° ENE
COSMO-SKYMED 1 2.7 04:32:48 10° SSE 04:37:09 86° ENE 04:41:32 10° NNW
SL-4 R/B 4.4 04:36:09 10° SSW 04:39:52 24° SE 04:43:42 10° E
Cosmos 1666 3.4 04:37:15 10° NNW 04:40:40 31° W 04:44:04 10° SSW
ATLAS CENTAUR R/B 3.0 04:30:43 10° WNW 04:41:13 86° NNE 04:45:12 10° ESE
Cosmos 540 Rocket 4.3 04:36:23 10° S 04:41:25 55° ESE 04:46:29 10° NNE
ATLAS 2AS CENTAUR R/B 2.9 04:34:01 10° NW 04:41:38 76° SW 04:48:38 10° SE
Cosmos 1975 4.2 04:40:58 10° N 04:44:53 45° ENE 04:48:45 10° SSE
Cosmos 2298 Rocket 4.4 04:42:09 10° NNW 04:47:31 75° ENE 04:52:49 10° SSE
